Showing default

O3B FM8, 40082

Orbit data source: Space-Track

O3B FM8, 40082 is a payload satellite owned by O3B (JE) that was launched on Thu, 10 Jul 2014 UTC via a SOYUZ-ST-B launch vehicle from the French Guiana (FRGUI). Payloads include a variety of satellites, spacecraft, and rockets equipped with specific instruments for various scientific and technological missions. These include communications satellites like Starlink; space stations such as the ISS; scientific satellites like the Hubble; Earth observation satellites from companies like Planet Labs, Umbra, and HawkEye 360; GPS; miniature CubeSats for education and research; and military/defense satellites.

Loading next visibility...
O3B FM8 details
Identifier
40082, 2014-038D
Orbit
Active
Last TLE update1 day ago
Origin
Flag of JEO3B (JE / O3B)
ManufacturerThales Alenia
MissionOperational Commercial Communications
Bus & MotorPRISMA?, LS-400 AOCS?
Mass700 kg wet, ~500 kg dry
Launch date (UTC)
2014-07-10 (10 years ago)
Launch vehicle
SOYUZ-ST-B
Launch site
French Guiana (FRGUI)
Object type
Payload
Rocket body
Debris
Shape & HBRTrap Box + 2 Pan, 12 m
Radar Cross Section21.980 m², Large (>1 m²)

Expand to show TLE details & history

TLE from 1 day ago
0 O3B FM8
1 40082U 14038D   24347.03470841 -.00000012  00000-0  00000-0 0  9991
2 40082   0.0431 358.1762 0002763 261.7001 100.0955  5.00115512190326
Epoch: 2024-12-12T00:49Z
Definitive object data (Epoch: 2024-12-12T00:49:58.806Z)
Latitude0.00365°
Longitude-93.71592°
Altitude8,065.072 km
Speed5.254 km/s
True Right ascension23h 59m 59s
True Declination0° 00' 13"
Sunlit
Object was in daylight at TLE epoch
Visualization TLE readout
Latitude-0.02468°
Longitude112.38109°
Altitude8,062.055 km
Speed5.255 km/s
Apparent Right ascension14h 52m 32s
Apparent Declination-14° 03' 47"
Sunlit
Object is in daylight
Visualization observer readout
Local Sidereal Time06:51:27
Azimuth81.355° E
Elevation-32.069°
Doppler factor1
Orbital elements
Apogee altitude8,072.94 km
Perigee altitude8,064.957 km
Semi-major axis14,447.085 km
Eccentricity0.0002763
Inclination0.0431°
RAAN358.1762°
Arg. of periapsis261.7001°
True anomaly100.12667°
Mean anomaly100.0955°
Eccentric anomaly100.11108°
Mean motion1.24989 °/min
BSTARUnknown
Orbital period288.02 mins
Loading maneuver chart data...
Loading historical data...
Loading historical data...
Loading historical data...
Loading historical data...
Loading historical data...
Loading historical data...
Loading historical data...
Other satellites on launch #38 in the year 2014 (2014-07-10 UTC)

O3B FM8 Visibility forecast

Observer location: undefined°, undefined

Span
Click to sort rows by Start time (UTC) header in descending order
Start Az.
Max El. time (UTC)
Max El. Az.
Max El.
End time (UTC)
End Az.
79 mins2024-12-13 11:58:52.023Z232.431° WSW2024-12-13 12:38:52.023Z179.646° S24.376°2024-12-13 13:17:52.023Z128.141° SE
78 mins2024-12-13 17:59:52.023Z231.395° WSW2024-12-13 18:38:52.023Z179.6° S24.318°2024-12-13 19:17:52.023Z128.1° SE
78 mins2024-12-13 23:59:52.023Z231.341° WSW2024-12-14 00:38:52.023Z179.547° S24.363°2024-12-14 01:17:52.023Z128.049° SE
78 mins2024-12-14 05:59:52.023Z231.385° WSW2024-12-14 06:38:52.023Z179.594° S24.421°2024-12-14 07:17:52.023Z128.091° SE
|